Year,Month,Day,Hour,Minute,Value (Times are PST for insolation in W/m^2)
2018,05,30,00,00,0.00
2018,05,30,00,01,0.00
2018,05,30,00,02,0.00
2018,05,30,00,03,0.00
2018,05,30,00,04,0.00
2018,05,30,00,05,0.00
2018,05,30,00,06,0.00
2018,05,30,00,07,0.00
2018,05,30,00,08,0.00
2018,05,30,00,09,0.00
2018,05,30,00,10,0.00
2018,05,30,00,11,0.00
2018,05,30,00,12,0.00
2018,05,30,00,13,0.00
2018,05,30,00,14,0.00
2018,05,30,00,15,0.00
2018,05,30,00,16,0.00
2018,05,30,00,17,0.00
2018,05,30,00,18,0.00
2018,05,30,00,19,0.00
2018,05,30,00,20,0.00
2018,05,30,00,21,0.00
2018,05,30,00,22,0.00
2018,05,30,00,23,0.00
2018,05,30,00,24,0.00
2018,05,30,00,25,0.00
2018,05,30,00,26,0.00
2018,05,30,00,27,0.00
2018,05,30,00,28,0.00
2018,05,30,00,29,0.00
2018,05,30,00,30,0.00
2018,05,30,00,31,0.00
2018,05,30,00,32,0.00
2018,05,30,00,33,0.00
2018,05,30,00,34,0.00
2018,05,30,00,35,0.00
2018,05,30,00,36,0.00
2018,05,30,00,37,0.00
2018,05,30,00,38,0.00
2018,05,30,00,39,0.00
2018,05,30,00,40,0.00
2018,05,30,00,41,0.00
2018,05,30,00,42,0.00
2018,05,30,00,43,0.00
2018,05,30,00,44,0.00
2018,05,30,00,45,0.00
2018,05,30,00,46,0.00
2018,05,30,00,47,0.00
2018,05,30,00,48,0.00
2018,05,30,00,49,0.00
2018,05,30,00,50,0.00
2018,05,30,00,51,0.00
2018,05,30,00,52,0.00
2018,05,30,00,53,0.00
2018,05,30,00,54,0.00
2018,05,30,00,55,0.00
2018,05,30,00,56,0.00
2018,05,30,00,57,0.00
2018,05,30,00,58,0.00
2018,05,30,00,59,0.00
2018,05,30,01,00,0.00
2018,05,30,01,01,0.00
2018,05,30,01,02,0.00
2018,05,30,01,03,0.00
2018,05,30,01,04,0.00
2018,05,30,01,05,0.00
2018,05,30,01,06,0.00
2018,05,30,01,07,0.00
2018,05,30,01,08,0.00
2018,05,30,01,09,0.00
2018,05,30,01,10,0.00
2018,05,30,01,11,0.00
2018,05,30,01,12,0.00
2018,05,30,01,13,0.00
2018,05,30,01,14,0.00
2018,05,30,01,15,0.00
2018,05,30,01,16,0.00
2018,05,30,01,17,0.00
2018,05,30,01,18,0.00
2018,05,30,01,19,0.00
2018,05,30,01,20,0.00
2018,05,30,01,21,0.00
2018,05,30,01,22,0.00
2018,05,30,01,23,0.00
2018,05,30,01,24,0.00
2018,05,30,01,25,0.00
2018,05,30,01,26,0.00
2018,05,30,01,27,0.00
2018,05,30,01,28,0.00
2018,05,30,01,29,0.00
2018,05,30,01,30,0.00
2018,05,30,01,31,0.00
2018,05,30,01,32,0.00
2018,05,30,01,33,0.00
2018,05,30,01,34,0.00
2018,05,30,01,35,0.00
2018,05,30,01,36,0.00
2018,05,30,01,37,0.00
2018,05,30,01,38,0.00
2018,05,30,01,39,0.00
2018,05,30,01,40,0.00
2018,05,30,01,41,0.00
2018,05,30,01,42,0.00
2018,05,30,01,43,0.00
2018,05,30,01,44,0.00
2018,05,30,01,45,0.00
2018,05,30,01,46,0.00
2018,05,30,01,47,0.00
2018,05,30,01,48,0.00
2018,05,30,01,49,0.00
2018,05,30,01,50,0.00
2018,05,30,01,51,0.00
2018,05,30,01,52,0.00
2018,05,30,01,53,0.00
2018,05,30,01,54,0.00
2018,05,30,01,55,0.00
2018,05,30,01,56,0.00
2018,05,30,01,57,0.00
2018,05,30,01,58,0.00
2018,05,30,01,59,0.00
2018,05,30,02,00,0.00
2018,05,30,02,01,0.00
2018,05,30,02,02,0.00
2018,05,30,02,03,0.00
2018,05,30,02,04,0.00
2018,05,30,02,05,0.00
2018,05,30,02,06,0.00
2018,05,30,02,07,0.00
2018,05,30,02,08,0.00
2018,05,30,02,09,0.00
2018,05,30,02,10,0.00
2018,05,30,02,11,0.00
2018,05,30,02,12,0.00
2018,05,30,02,13,0.00
2018,05,30,02,14,0.00
2018,05,30,02,15,0.00
2018,05,30,02,16,0.00
2018,05,30,02,17,0.00
2018,05,30,02,18,0.00
2018,05,30,02,19,0.00
2018,05,30,02,20,0.00
2018,05,30,02,21,0.00
2018,05,30,02,22,0.00
2018,05,30,02,23,0.00
2018,05,30,02,24,0.00
2018,05,30,02,25,0.00
2018,05,30,02,26,0.00
2018,05,30,02,27,0.00
2018,05,30,02,28,0.00
2018,05,30,02,29,0.00
2018,05,30,02,30,0.00
2018,05,30,02,31,0.00
2018,05,30,02,32,0.00
2018,05,30,02,33,0.00
2018,05,30,02,34,0.00
2018,05,30,02,35,0.00
2018,05,30,02,36,0.00
2018,05,30,02,37,0.00
2018,05,30,02,38,0.00
2018,05,30,02,39,0.00
2018,05,30,02,40,0.00
2018,05,30,02,41,0.00
2018,05,30,02,42,0.00
2018,05,30,02,43,0.00
2018,05,30,02,44,0.00
2018,05,30,02,45,0.00
2018,05,30,02,46,0.00
2018,05,30,02,47,0.00
2018,05,30,02,48,0.00
2018,05,30,02,49,0.00
2018,05,30,02,50,0.00
2018,05,30,02,51,0.00
2018,05,30,02,52,0.00
2018,05,30,02,53,0.00
2018,05,30,02,54,0.00
2018,05,30,02,55,0.00
2018,05,30,02,56,0.00
2018,05,30,02,57,0.00
2018,05,30,02,58,0.00
2018,05,30,02,59,0.00
2018,05,30,03,00,0.00
2018,05,30,03,01,0.00
2018,05,30,03,02,0.00
2018,05,30,03,03,0.00
2018,05,30,03,04,0.00
2018,05,30,03,05,0.00
2018,05,30,03,06,0.00
2018,05,30,03,07,0.00
2018,05,30,03,08,0.00
2018,05,30,03,09,0.00
2018,05,30,03,10,0.00
2018,05,30,03,11,0.00
2018,05,30,03,12,0.00
2018,05,30,03,13,0.00
2018,05,30,03,14,0.00
2018,05,30,03,15,0.00
2018,05,30,03,16,0.00
2018,05,30,03,17,0.00
2018,05,30,03,18,0.00
2018,05,30,03,19,0.00
2018,05,30,03,20,0.00
2018,05,30,03,21,0.00
2018,05,30,03,22,0.00
2018,05,30,03,23,0.00
2018,05,30,03,24,0.00
2018,05,30,03,25,0.00
2018,05,30,03,26,0.00
2018,05,30,03,27,0.00
2018,05,30,03,28,0.00
2018,05,30,03,29,0.00
2018,05,30,03,30,0.00
2018,05,30,03,31,0.00
2018,05,30,03,32,0.00
2018,05,30,03,33,0.00
2018,05,30,03,34,0.00
2018,05,30,03,35,0.00
2018,05,30,03,36,0.00
2018,05,30,03,37,0.00
2018,05,30,03,38,0.00
2018,05,30,03,39,0.00
2018,05,30,03,40,0.00
2018,05,30,03,41,0.00
2018,05,30,03,42,0.00
2018,05,30,03,43,0.00
2018,05,30,03,44,0.00
2018,05,30,03,45,0.00
2018,05,30,03,46,0.00
2018,05,30,03,47,0.00
2018,05,30,03,48,0.00
2018,05,30,03,49,0.00
2018,05,30,03,50,0.00
2018,05,30,03,51,0.00
2018,05,30,03,52,0.00
2018,05,30,03,53,0.00
2018,05,30,03,54,0.00
2018,05,30,03,55,0.00
2018,05,30,03,56,0.00
2018,05,30,03,57,0.00
2018,05,30,03,58,0.00
2018,05,30,03,59,0.00
2018,05,30,04,00,0.00
2018,05,30,04,01,0.00
2018,05,30,04,02,0.00
2018,05,30,04,03,0.00
2018,05,30,04,04,0.00
2018,05,30,04,05,0.00
2018,05,30,04,06,0.00
2018,05,30,04,07,0.00
2018,05,30,04,08,0.00
2018,05,30,04,09,0.00
2018,05,30,04,10,0.00
2018,05,30,04,11,0.00
2018,05,30,04,12,0.00
2018,05,30,04,13,0.00
2018,05,30,04,14,0.00
2018,05,30,04,15,0.00
2018,05,30,04,16,0.00
2018,05,30,04,17,0.00
2018,05,30,04,18,0.00
2018,05,30,04,19,0.00
2018,05,30,04,20,0.00
2018,05,30,04,21,0.00
2018,05,30,04,22,0.00
2018,05,30,04,23,0.00
2018,05,30,04,24,0.00
2018,05,30,04,25,0.00
2018,05,30,04,26,0.00
2018,05,30,04,27,0.00
2018,05,30,04,28,0.00
2018,05,30,04,29,0.00
2018,05,30,04,30,0.00
2018,05,30,04,31,0.00
2018,05,30,04,32,0.00
2018,05,30,04,33,0.00
2018,05,30,04,34,0.00
2018,05,30,04,35,0.00
2018,05,30,04,36,0.00
2018,05,30,04,37,0.00
2018,05,30,04,38,0.00
2018,05,30,04,39,0.00
2018,05,30,04,40,0.00
2018,05,30,04,41,0.00
2018,05,30,04,42,0.00
2018,05,30,04,43,0.00
2018,05,30,04,44,0.00
2018,05,30,04,45,0.00
2018,05,30,04,46,0.00
2018,05,30,04,47,0.00
2018,05,30,04,48,0.00
2018,05,30,04,49,0.00
2018,05,30,04,50,0.00
2018,05,30,04,51,0.00
2018,05,30,04,52,0.00
2018,05,30,04,53,0.00
2018,05,30,04,54,0.00
2018,05,30,04,55,0.00
2018,05,30,04,56,0.00
2018,05,30,04,57,0.00
2018,05,30,04,58,0.00
2018,05,30,04,59,0.00
2018,05,30,05,00,0.00
2018,05,30,05,01,0.00
2018,05,30,05,02,0.00
2018,05,30,05,03,0.00
2018,05,30,05,04,0.00
2018,05,30,05,05,0.00
2018,05,30,05,06,0.00
2018,05,30,05,07,0.00
2018,05,30,05,08,0.60
2018,05,30,05,09,5.00
2018,05,30,05,10,5.00
2018,05,30,05,11,5.00
2018,05,30,05,12,6.30
2018,05,30,05,13,7.00
2018,05,30,05,14,7.00
2018,05,30,05,15,7.00
2018,05,30,05,16,7.00
2018,05,30,05,17,7.00
2018,05,30,05,18,7.00
2018,05,30,05,19,8.30
2018,05,30,05,20,9.00
2018,05,30,05,21,9.00
2018,05,30,05,22,9.00
2018,05,30,05,23,9.50
2018,05,30,05,24,11.00
2018,05,30,05,25,11.00
2018,05,30,05,26,11.60
2018,05,30,05,27,12.00
2018,05,30,05,28,12.00
2018,05,30,05,29,12.30
2018,05,30,05,30,14.00
2018,05,30,05,31,14.00
2018,05,30,05,32,14.00
2018,05,30,05,33,14.00
2018,05,30,05,34,14.00
2018,05,30,05,35,15.80
2018,05,30,05,36,16.00
2018,05,30,05,37,16.00
2018,05,30,05,38,16.70
2018,05,30,05,39,18.00
2018,05,30,05,40,18.00
2018,05,30,05,41,18.70
2018,05,30,05,42,19.00
2018,05,30,05,43,19.00
2018,05,30,05,44,19.50
2018,05,30,05,45,21.00
2018,05,30,05,46,21.00
2018,05,30,05,47,21.00
2018,05,30,05,48,22.60
2018,05,30,05,49,23.00
2018,05,30,05,50,23.20
2018,05,30,05,51,25.00
2018,05,30,05,52,25.00
2018,05,30,05,53,25.50
2018,05,30,05,54,26.00
2018,05,30,05,55,26.00
2018,05,30,05,56,27.80
2018,05,30,05,57,28.30
2018,05,30,05,58,30.00
2018,05,30,05,59,30.70
2018,05,30,06,00,32.00
2018,05,30,06,01,32.60
2018,05,30,06,02,33.00
2018,05,30,06,03,33.00
2018,05,30,06,04,35.00
2018,05,30,06,05,35.50
2018,05,30,06,06,37.00
2018,05,30,06,07,37.00
2018,05,30,06,08,38.30
2018,05,30,06,09,39.80
2018,05,30,06,10,40.00
2018,05,30,06,11,40.30
2018,05,30,06,12,42.00
2018,05,30,06,13,42.00
2018,05,30,06,14,42.00
2018,05,30,06,15,43.30
2018,05,30,06,16,44.00
2018,05,30,06,17,44.00
2018,05,30,06,18,44.00
2018,05,30,06,19,44.50
2018,05,30,06,20,46.00
2018,05,30,06,21,46.50
2018,05,30,06,22,47.00
2018,05,30,06,23,48.50
2018,05,30,06,24,49.00
2018,05,30,06,25,51.00
2018,05,30,06,26,51.00
2018,05,30,06,27,51.70
2018,05,30,06,28,53.00
2018,05,30,06,29,53.60
2018,05,30,06,30,54.00
2018,05,30,06,31,55.80
2018,05,30,06,32,56.20
2018,05,30,06,33,58.00
2018,05,30,06,34,58.70
2018,05,30,06,35,60.00
2018,05,30,06,36,61.30
2018,05,30,06,37,62.00
2018,05,30,06,38,62.90
2018,05,30,06,39,63.20
2018,05,30,06,40,65.00
2018,05,30,06,41,65.70
2018,05,30,06,42,67.00
2018,05,30,06,43,68.30
2018,05,30,06,44,69.00
2018,05,30,06,45,69.90
2018,05,30,06,46,70.20
2018,05,30,06,47,72.00
2018,05,30,06,48,72.70
2018,05,30,06,49,75.00
2018,05,30,06,50,76.00
2018,05,30,06,51,76.00
2018,05,30,06,52,76.90
2018,05,30,06,53,77.00
2018,05,30,06,54,77.00
2018,05,30,06,55,77.70
2018,05,30,06,56,79.00
2018,05,30,06,57,79.00
2018,05,30,06,58,79.00
2018,05,30,06,59,79.00
2018,05,30,07,00,81.00
2018,05,30,07,01,81.00
2018,05,30,07,02,81.00
2018,05,30,07,03,81.00
2018,05,30,07,04,81.00
2018,05,30,07,05,82.50
2018,05,30,07,06,83.00
2018,05,30,07,07,84.40
2018,05,30,07,08,88.70
2018,05,30,07,09,93.60
2018,05,30,07,10,102.70
2018,05,30,07,11,112.70
2018,05,30,07,12,124.90
2018,05,30,07,13,139.60
2018,05,30,07,14,154.80
2018,05,30,07,15,171.60
2018,05,30,07,16,182.30
2018,05,30,07,17,190.60
2018,05,30,07,18,195.50
2018,05,30,07,19,199.30
2018,05,30,07,20,206.20
2018,05,30,07,21,222.60
2018,05,30,07,22,233.30
2018,05,30,07,23,237.00
2018,05,30,07,24,236.50
2018,05,30,07,25,234.70
2018,05,30,07,26,234.00
2018,05,30,07,27,234.10
2018,05,30,07,28,237.00
2018,05,30,07,29,236.70
2018,05,30,07,30,237.20
2018,05,30,07,31,241.00
2018,05,30,07,32,244.90
2018,05,30,07,33,251.20
2018,05,30,07,34,259.00
2018,05,30,07,35,270.10
2018,05,30,07,36,281.10
2018,05,30,07,37,288.10
2018,05,30,07,38,291.00
2018,05,30,07,39,293.30
2018,05,30,07,40,296.30
2018,05,30,07,41,300.60
2018,05,30,07,42,301.10
2018,05,30,07,43,303.00
2018,05,30,07,44,306.80
2018,05,30,07,45,308.50
2018,05,30,07,46,311.50
2018,05,30,07,47,315.30
2018,05,30,07,48,319.60
2018,05,30,07,49,323.60
2018,05,30,07,50,327.50
2018,05,30,07,51,330.10
2018,05,30,07,52,333.00
2018,05,30,07,53,336.40
2018,05,30,07,54,338.70
2018,05,30,07,55,342.40
2018,05,30,07,56,345.10
2018,05,30,07,57,346.50
2018,05,30,07,58,349.50
2018,05,30,07,59,353.40
2018,05,30,08,00,357.50
2018,05,30,08,01,359.80
2018,05,30,08,02,363.50
2018,05,30,08,03,366.10
2018,05,30,08,04,367.00
2018,05,30,08,05,367.00
2018,05,30,08,06,367.00
2018,05,30,08,07,369.50
2018,05,30,08,08,372.50
2018,05,30,08,09,375.70
2018,05,30,08,10,376.30
2018,05,30,08,11,378.80
2018,05,30,08,12,381.80
2018,05,30,08,13,385.40
2018,05,30,08,14,388.00
2018,05,30,08,15,388.00
2018,05,30,08,16,389.80
2018,05,30,08,17,392.60
2018,05,30,08,18,397.50
2018,05,30,08,19,400.90
2018,05,30,08,20,405.00
2018,05,30,08,21,407.30
2018,05,30,08,22,410.20
2018,05,30,08,23,412.70
2018,05,30,08,24,415.20
2018,05,30,08,25,417.80
2018,05,30,08,26,420.70
2018,05,30,08,27,423.00
2018,05,30,08,28,424.60
2018,05,30,08,29,425.00
2018,05,30,08,30,424.10
2018,05,30,08,31,425.20
2018,05,30,08,32,427.00
2018,05,30,08,33,428.50
2018,05,30,08,34,429.10
2018,05,30,08,35,428.30
2018,05,30,08,36,429.00
2018,05,30,08,37,425.60
2018,05,30,08,38,428.30
2018,05,30,08,39,438.30
2018,05,30,08,40,448.50
2018,05,30,08,41,454.00
2018,05,30,08,42,463.40
2018,05,30,08,43,470.50
2018,05,30,08,44,472.80
2018,05,30,08,45,475.10
2018,05,30,08,46,477.00
2018,05,30,08,47,480.70
2018,05,30,08,48,483.60
2018,05,30,08,49,486.30
2018,05,30,08,50,488.50
2018,05,30,08,51,489.00
2018,05,30,08,52,490.20
2018,05,30,08,53,492.50
2018,05,30,08,54,494.70
2018,05,30,08,55,496.50
2018,05,30,08,56,498.30
2018,05,30,08,57,500.50
2018,05,30,08,58,505.40
2018,05,30,08,59,506.60
2018,05,30,09,00,510.80
2018,05,30,09,01,513.70
2018,05,30,09,02,516.00
2018,05,30,09,03,517.00
2018,05,30,09,04,518.50
2018,05,30,09,05,519.90
2018,05,30,09,06,520.20
2018,05,30,09,07,522.50
2018,05,30,09,08,525.10
2018,05,30,09,09,529.10
2018,05,30,09,10,532.90
2018,05,30,09,11,535.50
2018,05,30,09,12,537.90
2018,05,30,09,13,541.80
2018,05,30,09,14,548.00
2018,05,30,09,15,548.70
2018,05,30,09,16,552.40
2018,05,30,09,17,557.40
2018,05,30,09,18,562.10
2018,05,30,09,19,563.90
2018,05,30,09,20,568.30
2018,05,30,09,21,570.80
2018,05,30,09,22,573.00
2018,05,30,09,23,574.90
2018,05,30,09,24,577.00
2018,05,30,09,25,577.70
2018,05,30,09,26,583.10
2018,05,30,09,27,585.00
2018,05,30,09,28,586.60
2018,05,30,09,29,592.10
2018,05,30,09,30,595.90
2018,05,30,09,31,598.60
2018,05,30,09,32,602.00
2018,05,30,09,33,605.70
2018,05,30,09,34,608.00
2018,05,30,09,35,608.00
2018,05,30,09,36,608.70
2018,05,30,09,37,611.60
2018,05,30,09,38,615.50
2018,05,30,09,39,620.00
2018,05,30,09,40,621.90
2018,05,30,09,41,624.30
2018,05,30,09,42,626.50
2018,05,30,09,43,629.10
2018,05,30,09,44,631.00
2018,05,30,09,45,632.20
2018,05,30,09,46,636.70
2018,05,30,09,47,641.50
2018,05,30,09,48,645.00
2018,05,30,09,49,646.10
2018,05,30,09,50,650.00
2018,05,30,09,51,651.90
2018,05,30,09,52,654.00
2018,05,30,09,53,655.50
2018,05,30,09,54,656.90
2018,05,30,09,55,659.00
2018,05,30,09,56,659.00
2018,05,30,09,57,660.50
2018,05,30,09,58,663.50
2018,05,30,09,59,665.30
2018,05,30,10,00,667.50
2018,05,30,10,01,669.80
2018,05,30,10,02,670.10
2018,05,30,10,03,671.50
2018,05,30,10,04,672.30
2018,05,30,10,05,673.10
2018,05,30,10,06,677.50
2018,05,30,10,07,679.80
2018,05,30,10,08,680.00
2018,05,30,10,09,679.90
2018,05,30,10,10,679.00
2018,05,30,10,11,679.40
2018,05,30,10,12,681.00
2018,05,30,10,13,682.00
2018,05,30,10,14,683.50
2018,05,30,10,15,682.30
2018,05,30,10,16,680.40
2018,05,30,10,17,684.40
2018,05,30,10,18,686.40
2018,05,30,10,19,688.00
2018,05,30,10,20,689.00
2018,05,30,10,21,692.00
2018,05,30,10,22,695.70
2018,05,30,10,23,700.10
2018,05,30,10,24,702.00
2018,05,30,10,25,705.80
2018,05,30,10,26,706.00
2018,05,30,10,27,700.90
2018,05,30,10,28,698.00
2018,05,30,10,29,698.00
2018,05,30,10,30,696.00
2018,05,30,10,31,696.50
2018,05,30,10,32,698.80
2018,05,30,10,33,700.50
2018,05,30,10,34,705.40
2018,05,30,10,35,717.60
2018,05,30,10,36,723.60
2018,05,30,10,37,731.80
2018,05,30,10,38,736.20
2018,05,30,10,39,731.00
2018,05,30,10,40,731.00
2018,05,30,10,41,731.00
2018,05,30,10,42,732.50
2018,05,30,10,43,736.60
2018,05,30,10,44,742.40
2018,05,30,10,45,746.00
2018,05,30,10,46,750.90
2018,05,30,10,47,754.00
2018,05,30,10,48,756.50
2018,05,30,10,49,760.30
2018,05,30,10,50,764.40
2018,05,30,10,51,768.60
2018,05,30,10,52,774.00
2018,05,30,10,53,778.10
2018,05,30,10,54,780.00
2018,05,30,10,55,782.50
2018,05,30,10,56,780.90
2018,05,30,10,57,779.10
2018,05,30,10,58,780.20
2018,05,30,10,59,782.00
2018,05,30,11,00,783.50
2018,05,30,11,01,788.40
2018,05,30,11,02,791.00
2018,05,30,11,03,789.50
2018,05,30,11,04,788.10
2018,05,30,11,05,787.70
2018,05,30,11,06,787.30
2018,05,30,11,07,791.00
2018,05,30,11,08,793.10
2018,05,30,11,09,795.60
2018,05,30,11,10,797.60
2018,05,30,11,11,799.80
2018,05,30,11,12,800.40
2018,05,30,11,13,802.20
2018,05,30,11,14,801.10
2018,05,30,11,15,801.40
2018,05,30,11,16,802.00
2018,05,30,11,17,807.40
2018,05,30,11,18,809.00
2018,05,30,11,19,807.20
2018,05,30,11,20,808.50
2018,05,30,11,21,807.00
2018,05,30,11,22,808.60
2018,05,30,11,23,811.30
2018,05,30,11,24,810.50
2018,05,30,11,25,810.00
2018,05,30,11,26,814.00
2018,05,30,11,27,814.00
2018,05,30,11,28,815.10
2018,05,30,11,29,819.10
2018,05,30,11,30,822.30
2018,05,30,11,31,825.20
2018,05,30,11,32,827.80
2018,05,30,11,33,828.30
2018,05,30,11,34,829.50
2018,05,30,11,35,828.70
2018,05,30,11,36,826.90
2018,05,30,11,37,826.50
2018,05,30,11,38,829.50
2018,05,30,11,39,832.70
2018,05,30,11,40,833.00
2018,05,30,11,41,833.00
2018,05,30,11,42,833.00
2018,05,30,11,43,835.60
2018,05,30,11,44,841.90
2018,05,30,11,45,842.50
2018,05,30,11,46,845.40
2018,05,30,11,47,842.00
2018,05,30,11,48,843.00
2018,05,30,11,49,847.10
2018,05,30,11,50,849.00
2018,05,30,11,51,845.90
2018,05,30,11,52,847.70
2018,05,30,11,53,852.60
2018,05,30,11,54,854.70
2018,05,30,11,55,860.30
2018,05,30,11,56,861.70
2018,05,30,11,57,863.00
2018,05,30,11,58,865.50
2018,05,30,11,59,867.00
2018,05,30,12,00,863.40
2018,05,30,12,01,864.30
2018,05,30,12,02,860.00
2018,05,30,12,03,860.40
2018,05,30,12,04,859.50
2018,05,30,12,05,859.20
2018,05,30,12,06,858.50
2018,05,30,12,07,859.70
2018,05,30,12,08,863.40
2018,05,30,12,09,867.80
2018,05,30,12,10,874.40
2018,05,30,12,11,885.60
2018,05,30,12,12,893.40
2018,05,30,12,13,902.20
2018,05,30,12,14,900.50
2018,05,30,12,15,909.30
2018,05,30,12,16,883.80
2018,05,30,12,17,849.00
2018,05,30,12,18,852.40
2018,05,30,12,19,839.60
2018,05,30,12,20,781.20
2018,05,30,12,21,733.20
2018,05,30,12,22,681.40
2018,05,30,12,23,649.00
2018,05,30,12,24,663.00
2018,05,30,12,25,663.00
2018,05,30,12,26,837.40
2018,05,30,12,27,948.60
2018,05,30,12,28,926.10
2018,05,30,12,29,879.00
2018,05,30,12,30,844.30
2018,05,30,12,31,743.10
2018,05,30,12,32,776.60
2018,05,30,12,33,816.00
2018,05,30,12,34,896.70
2018,05,30,12,35,915.20
2018,05,30,12,36,856.10
2018,05,30,12,37,891.90
2018,05,30,12,38,883.20
2018,05,30,12,39,871.10
2018,05,30,12,40,880.20
2018,05,30,12,41,890.20
2018,05,30,12,42,866.20
2018,05,30,12,43,860.60
2018,05,30,12,44,888.30
2018,05,30,12,45,928.40
2018,05,30,12,46,953.00
2018,05,30,12,47,951.80
2018,05,30,12,48,947.30
2018,05,30,12,49,922.00
2018,05,30,12,50,903.20
2018,05,30,12,51,889.50
2018,05,30,12,52,883.20
2018,05,30,12,53,877.30
2018,05,30,12,54,901.00
2018,05,30,12,55,942.10
2018,05,30,12,56,957.40
2018,05,30,12,57,962.30
2018,05,30,12,58,957.00
2018,05,30,12,59,949.10
2018,05,30,13,00,924.90
2018,05,30,13,01,895.90
2018,05,30,13,02,903.80
2018,05,30,13,03,904.70
2018,05,30,13,04,887.90
2018,05,30,13,05,768.60
2018,05,30,13,06,788.20
2018,05,30,13,07,786.10
2018,05,30,13,08,815.80
2018,05,30,13,09,822.80
2018,05,30,13,10,821.20
2018,05,30,13,11,782.10
2018,05,30,13,12,817.70
2018,05,30,13,13,861.40
2018,05,30,13,14,827.60
2018,05,30,13,15,801.50
2018,05,30,13,16,869.20
2018,05,30,13,17,882.10
2018,05,30,13,18,897.50
2018,05,30,13,19,822.60
2018,05,30,13,20,801.10
2018,05,30,13,21,869.70
2018,05,30,13,22,890.30
2018,05,30,13,23,863.80
2018,05,30,13,24,880.90
2018,05,30,13,25,915.80
2018,05,30,13,26,920.40
2018,05,30,13,27,890.40
2018,05,30,13,28,899.50
2018,05,30,13,29,920.80
2018,05,30,13,30,919.80
2018,05,30,13,31,920.60
2018,05,30,13,32,874.20
2018,05,30,13,33,876.30
2018,05,30,13,34,884.40
2018,05,30,13,35,899.00
2018,05,30,13,36,951.50
2018,05,30,13,37,934.80
2018,05,30,13,38,927.80
2018,05,30,13,39,929.30
2018,05,30,13,40,920.60
2018,05,30,13,41,844.20
2018,05,30,13,42,840.40
2018,05,30,13,43,834.90
2018,05,30,13,44,812.10
2018,05,30,13,45,835.60
2018,05,30,13,46,824.20
2018,05,30,13,47,835.10
2018,05,30,13,48,884.00
2018,05,30,13,49,925.60
2018,05,30,13,50,923.60
2018,05,30,13,51,935.80
2018,05,30,13,52,949.80
2018,05,30,13,53,954.20
2018,05,30,13,54,942.70
2018,05,30,13,55,947.60
2018,05,30,13,56,962.60
2018,05,30,13,57,960.40
2018,05,30,13,58,949.10
2018,05,30,13,59,946.90
2018,05,30,14,00,940.20
2018,05,30,14,01,941.60
2018,05,30,14,02,920.80
2018,05,30,14,03,914.10
2018,05,30,14,04,917.20
2018,05,30,14,05,930.60
2018,05,30,14,06,939.30
2018,05,30,14,07,945.80
2018,05,30,14,08,944.50
2018,05,30,14,09,947.10
2018,05,30,14,10,954.70
2018,05,30,14,11,963.10
2018,05,30,14,12,966.50
2018,05,30,14,13,967.00
2018,05,30,14,14,972.40
2018,05,30,14,15,976.00
2018,05,30,14,16,979.10
2018,05,30,14,17,983.50
2018,05,30,14,18,942.10
2018,05,30,14,19,950.60
2018,05,30,14,20,930.50
2018,05,30,14,21,848.70
2018,05,30,14,22,914.70
2018,05,30,14,23,967.20
2018,05,30,14,24,984.80
2018,05,30,14,25,1016.90
2018,05,30,14,26,1052.10
2018,05,30,14,27,1056.00
2018,05,30,14,28,1013.00
2018,05,30,14,29,969.90
2018,05,30,14,30,845.70
2018,05,30,14,31,879.10
2018,05,30,14,32,868.00
2018,05,30,14,33,868.00
2018,05,30,14,34,868.00
2018,05,30,14,35,868.00
2018,05,30,14,36,868.00
2018,05,30,14,37,870.20
2018,05,30,14,38,874.00
2018,05,30,14,39,848.80
2018,05,30,14,40,853.70
2018,05,30,14,41,861.00
2018,05,30,14,42,1009.00
2018,05,30,14,43,981.70
2018,05,30,14,44,1006.10
2018,05,30,14,45,986.00
2018,05,30,14,46,902.90
2018,05,30,14,47,900.70
2018,05,30,14,48,880.60
2018,05,30,14,49,946.20
2018,05,30,14,50,928.70
2018,05,30,14,51,889.00
2018,05,30,14,52,848.60
2018,05,30,14,53,747.70
2018,05,30,14,54,714.00
2018,05,30,14,55,714.00
2018,05,30,14,56,673.30
2018,05,30,14,57,638.30
2018,05,30,14,58,614.30
2018,05,30,14,59,599.50
2018,05,30,15,00,587.50
2018,05,30,15,01,637.10
2018,05,30,15,02,656.90
2018,05,30,15,03,684.50
2018,05,30,15,04,678.20
2018,05,30,15,05,708.60
2018,05,30,15,06,724.10
2018,05,30,15,07,721.40
2018,05,30,15,08,775.60
2018,05,30,15,09,859.70
2018,05,30,15,10,914.70
2018,05,30,15,11,915.00
2018,05,30,15,12,889.90
2018,05,30,15,13,883.30
2018,05,30,15,14,833.40
2018,05,30,15,15,812.60
2018,05,30,15,16,815.20
2018,05,30,15,17,858.00
2018,05,30,15,18,803.80
2018,05,30,15,19,649.00
2018,05,30,15,20,582.10
2018,05,30,15,21,498.40
2018,05,30,15,22,461.10
2018,05,30,15,23,475.10
2018,05,30,15,24,497.00
2018,05,30,15,25,507.40
2018,05,30,15,26,520.00
2018,05,30,15,27,505.60
2018,05,30,15,28,466.10
2018,05,30,15,29,442.40
2018,05,30,15,30,463.00
2018,05,30,15,31,475.60
2018,05,30,15,32,512.20
2018,05,30,15,33,454.30
2018,05,30,15,34,448.70
2018,05,30,15,35,429.80
2018,05,30,15,36,419.20
2018,05,30,15,37,411.50
2018,05,30,15,38,400.20
2018,05,30,15,39,445.10
2018,05,30,15,40,455.40
2018,05,30,15,41,526.60
2018,05,30,15,42,587.30
2018,05,30,15,43,605.70
2018,05,30,15,44,601.70
2018,05,30,15,45,616.30
2018,05,30,15,46,635.70
2018,05,30,15,47,619.10
2018,05,30,15,48,677.90
2018,05,30,15,49,743.00
2018,05,30,15,50,748.30
2018,05,30,15,51,692.80
2018,05,30,15,52,669.60
2018,05,30,15,53,651.10
2018,05,30,15,54,662.50
2018,05,30,15,55,692.90
2018,05,30,15,56,703.70
2018,05,30,15,57,645.20
2018,05,30,15,58,602.00
2018,05,30,15,59,576.00
2018,05,30,16,00,504.00
2018,05,30,16,01,515.10
2018,05,30,16,02,580.70
2018,05,30,16,03,624.00
2018,05,30,16,04,624.00
2018,05,30,16,05,378.70
2018,05,30,16,06,316.00
2018,05,30,16,07,356.10
2018,05,30,16,08,399.00
2018,05,30,16,09,415.00
2018,05,30,16,10,547.90
2018,05,30,16,11,641.60
2018,05,30,16,12,653.00
2018,05,30,16,13,638.70
2018,05,30,16,14,662.60
2018,05,30,16,15,654.00
2018,05,30,16,16,641.40
2018,05,30,16,17,606.20
2018,05,30,16,18,642.50
2018,05,30,16,19,684.30
2018,05,30,16,20,701.20
2018,05,30,16,21,691.70
2018,05,30,16,22,699.80
2018,05,30,16,23,693.40
2018,05,30,16,24,709.20
2018,05,30,16,25,715.50
2018,05,30,16,26,701.70
2018,05,30,16,27,687.00
2018,05,30,16,28,635.70
2018,05,30,16,29,463.40
2018,05,30,16,30,412.70
2018,05,30,16,31,357.50
2018,05,30,16,32,391.20
2018,05,30,16,33,394.40
2018,05,30,16,34,387.00
2018,05,30,16,35,421.20
2018,05,30,16,36,552.70
2018,05,30,16,37,642.70
2018,05,30,16,38,641.60
2018,05,30,16,39,644.20
2018,05,30,16,40,655.40
2018,05,30,16,41,657.00
2018,05,30,16,42,657.00
2018,05,30,16,43,655.10
2018,05,30,16,44,637.50
2018,05,30,16,45,618.30
2018,05,30,16,46,598.70
2018,05,30,16,47,575.30
2018,05,30,16,48,587.40
2018,05,30,16,49,574.50
2018,05,30,16,50,557.10
2018,05,30,16,51,552.80
2018,05,30,16,52,572.60
2018,05,30,16,53,566.40
2018,05,30,16,54,538.00
2018,05,30,16,55,532.30
2018,05,30,16,56,559.00
2018,05,30,16,57,547.10
2018,05,30,16,58,518.80
2018,05,30,16,59,488.00
2018,05,30,17,00,470.60
2018,05,30,17,01,468.10
2018,05,30,17,02,473.00
2018,05,30,17,03,492.90
2018,05,30,17,04,486.60
2018,05,30,17,05,484.90
2018,05,30,17,06,516.30
2018,05,30,17,07,480.70